[[{"header":{"parameterUnit":"m.s-1","parameterCategory":1,"la1":30.2991,"la2":30.254,"lo1":-89.0895,"lo2":-89.0444,"dy":0.0017,"dx":0.0017,"nx":28,"ny":28,"refTime":"2024-08-22T21:00:00:Z","depth":0,"parameterNumber":2,"parameterNumberName":"U-component_of_WINDS"},"data":[0,0,0,0,0,0,0,0,0,0,0,0,0,0,0,0,0,0,0,0,0,0,0,0,0,0,0,0,0,0,0,0,0,0,0,0,0,0,0,0,0,0,0,0,0,0,0,0,0,0,0,0,0,0,0,0,0,0,-4.5914,-4.5914,0,-4.5909,-4.5909,-4.5909,-4.5828,-4.5826,-4.5824,-4.5822,-4.5817,-4.5819,-4.5821,0,0,0,0,0,0,0,0,0,0,0,0,0,-4.5856,-4.5858,-4.5914,-4.5914,-4.5914,-4.5909,-4.5909,-4.5909,-4.5829,-4.5826,-4.5824,-4.5821,-4.5817,-4.5819,-4.5821,0,0,0,0,0,0,0,0,0,0,0,0,0,-4.5869,-4.5858,-4.5914,-4.5873,-4.5869,-4.5909,-4.5909,-4.5909,-4.5829,-4.5826,-4.5823,-4.582,-4.5816,-4.5818,-4.5821,-4.5899,0,0,-4.5829,-4.583,0,0,0,0,0,0,0,0,-4.5869,-4.5871,-4.5879,-4.5876,-4.5872,-4.5866,-4.5886,-4.5905,-4.583,-4.5844,-4.5822,-4.5819,-4.5836,-4.5837,-4.5842,-4.5899,-4.5899,-4.5829,-4.5831,-4.5832,-4.5833,0,0,0,0,0,0,0,-4.5868,-4.5871,-4.5912,-4.5879,-4.5875,-4.5856,-4.5854,-4.589,-4.5857,-4.5843,-4.5837,-4.5838,-4.5833,-4.584,-4.5842,-4.5898,-4.5829,-4.5832,-4.5833,-4.5834,-4.602,-4.6023,0,0,0,0,0,0,-4.5872,-4.5871,-4.5912,-4.5912,-4.5863,-4.5859,-4.5858,-4.5871,-4.5857,-4.5852,-4.584,-4.5834,-4.5837,-4.5839,-4.5841,-4.5931,-4.5832,-4.5835,-4.5836,-4.6016,-4.602,-4.6024,0,0,0,0,0,0,-4.5871,-4.5877,-4.5912,-4.589,-4.5893,-4.5864,-4.5879,-4.5873,-4.5879,-4.5855,-4.5849,-4.5853,-4.5835,-4.5838,-4.5885,-4.593,-4.5836,-4.5838,-4.6012,-4.6018,-4.6022,-4.6111,0,0,0,0,0,0,-4.587,-4.5877,-4.5905,-4.5891,-4.5894,-4.5956,-4.5882,-4.5875,-4.5884,-4.5876,-4.5865,-4.586,-4.5833,-4.5882,-4.5888,-4.5932,-4.584,-4.6008,-4.6015,-4.6021,-4.6104,-4.6119,-4.6131,0,0,0,0,0,-4.5868,-4.593,-4.5907,-4.5912,-4.5929,-4.5958,-4.596,-4.5927,-4.5888,-4.5916,-4.5902,-4.5861,-4.5925,-4.5888,-4.5894,-4.5939,-4.6005,-4.6013,-4.602,-4.6098,-4.6116,-4.6131,0,0,0,0,0,0,-4.595,-4.5928,-4.5901,-4.5961,-4.5962,-4.5945,-4.5979,-4.5947,-4.5959,-4.5951,-4.5909,-4.5908,-4.5962,-4.5956,-4.5914,-4.6014,-4.5958,-4.5967,-4.6015,-4.6032,-4.6045,-4.6044,-4.5843,0,0,0,0,0,-4.5975,-4.6,-4.598,-4.6034,-4.6036,-4.6009,-4.602,-4.5995,-4.5994,-4.5994,-4.5982,-4.5984,-4.6004,-4.6018,-4.6036,-4.6105,-4.6101,-4.6139,-4.6153,-4.6164,-4.6171,-4.6207,-4.6223,-4.6048,-4.6048,-4.6048,0,0,-4.6026,-4.6017,-4.6035,-4.605,-4.6048,-4.6076,-4.6009,-4.6041,-4.6061,-4.5999,-4.6042,-4.6035,-4.6034,-4.6093,-4.6118,-4.6089,-4.622,-4.6173,-4.6183,-4.6183,-4.6216,-4.6233,-4.6248,-4.6054,-4.6053,-4.6052,0,0,-4.6133,-4.613,-4.6174,-4.6174,-4.6173,-4.6155,-4.6166,-4.6155,-4.6147,-4.6191,-4.6145,-4.617,-4.6206,-4.6207,-4.6212,-4.6325,-4.6288,-4.6332,-4.6401,-4.6437,-4.6451,-4.6462,-4.6501,-4.6516,-4.6341,-4.6341,-4.6341,0,-4.6196,-4.6235,-4.6201,-4.6236,-4.6244,-4.6192,-4.6237,-4.6239,-4.6244,-4.6251,-4.6219,-4.6265,-4.626,-4.6319,-4.6346,-4.6353,-4.6365,-4.6331,-4.6451,-4.6463,-4.6474,-4.651,-4.6525,-4.6346,-4.6345,-4.6345,-4.6344,0,-4.6313,-4.6341,-4.6378,-4.6384,-4.6397,-4.6437,-4.641,-4.6427,-4.6403,-4.6388,-4.6435,-4.6429,-4.6444,-4.6457,-4.6433,-4.6513,-4.6495,-4.6459,-4.64,-4.6496,-4.6529,-4.6543,-4.6353,-4.6352,-4.635,-4.6349,0,0,-4.6465,-4.6456,-4.6469,-4.6472,-4.6469,-4.649,-4.6529,-4.6545,-4.656,-4.6567,-4.6598,-4.6632,-4.6599,-4.6606,-4.6582,-4.6614,-4.6702,-4.6573,-4.6572,-4.6595,-4.6789,-4.6814,-4.6831,-4.668,-4.6682,-4.6684,-4.6788,0,-4.6567,-4.6631,-4.6604,-4.6671,-4.6697,-4.6651,-4.6685,-4.6687,-4.6676,-4.6697,-4.6685,-4.6709,-4.6664,-4.6668,-4.6698,-4.6685,-4.674,-4.6678,-4.6707,-4.6708,-4.6705,-4.6848,-4.6875,-4.6973,-4.6801,-4.6804,-4.6805,0,-4.6692,-4.6704,-4.6775,-4.6768,-4.6778,-4.6809,-4.6823,-4.6844,-4.6846,-4.6836,-4.6846,-4.6816,-4.6855,-4.6801,-4.6853,-4.6812,-4.6823,-4.682,-4.6823,-4.6821,-4.676,-4.6848,-4.7004,-4.7017,-4.6826,-4.6824,-4.6823,0,-4.6794,-4.6829,-4.6875,-4.6879,-4.6874,-4.6897,-4.6896,-4.6895,-4.6908,-4.692,-4.6928,-4.6945,-4.6954,-4.6968,-4.6944,-4.6908,-4.7001,-4.6945,-4.6992,-4.6993,-4.701,-4.7009,-4.7167,-4.7024,-4.7023,-4.7023,-4.7023,0,-4.6907,-4.6951,-4.6921,-4.6949,-4.6998,-4.6968,-4.7017,-4.7011,-4.7013,-4.7039,-4.7002,-4.7028,-4.6996,-4.7019,-4.7002,-4.7048,-4.7053,-4.7045,-4.7039,-4.7047,-4.7047,-4.705,-4.7042,-4.7027,-4.7026,-4.7025,-4.7025,0,-4.7026,-4.7008,-4.7055,-4.7048,-4.7047,-4.7084,-4.7077,-4.7103,-4.7092,-4.7126,-4.7133,-4.7114,-4.714,-4.7119,-4.7145,-4.7133,-4.7193,-4.7179,-4.7192,-4.7187,-4.7235,-4.723,-4.7398,-4.7418,-4.7265,-4.7266,-4.7267,0,-4.7098,-4.7131,-4.7128,-4.7144,-4.7145,-4.7171,-4.7184,-4.7157,-4.7172,-4.718,-4.7205,-4.7229,-4.7245,-4.7289,-4.7278,-4.7298,-4.7282,-4.734,-4.7284,-4.7291,-4.728,-4.7277,-4.728,-4.735,-4.7352,-4.7353,-4.7354,0,-4.7227,-4.7217,-4.7237,-4.7255,-4.7271,-4.7284,-4.7293,-4.7309,-4.7282,-4.7301,-4.7327,-4.7341,-4.7368,-4.7391,-4.7408,-4.7407,-4.7376,-4.7373,-4.7384,-4.739,-4.7395,-4.7391,-4.7219,-4.7368,-4.7366,-4.7365,-4.7365,-4.7364,-4.7323,-4.7351,-4.7353,-4.7377,-4.7382,-4.7393,-4.7418,-4.741,-4.7432,-4.7452,-4.7436,-4.7468,-4.7472,-4.7491,-4.7495,-4.752,-4.7496,-4.7513,-4.7517,-4.7521,-4.7527,-4.7395,-4.7523,-4.7523,-4.7523,-4.7522,-4.7522,0,-4.7448,-4.7448,-4.7471,-4.7486,-4.7506,-4.7478,-4.7488,-4.7506,-4.7535,-4.7542,-4.756,-4.7591,-4.7615,-4.7608,-4.7629,-4.765,-4.7637,-4.7656,-4.7652,-4.7653,-4.7548,-4.7535,-4.7667,-4.7667,-4.7667,-4.7667,-4.7667,-4.7667,-4.7515,-4.756,-4.7551,-4.76,-4.76,-4.7631,-4.7639,-4.7649,-4.7655,-4.7692,-4.7711,-4.7707,-4.7709,-4.773,-4.7751,-4.7748,-4.7757,-4.7781,-4.7773,-4.7675,-4.766,-4.7646,-4.7633,-4.7784,-4.7784,-4.7875,-4.7876,-4.7877]},{"header":{"parameterUnit":"m.s-1","parameterCategory":1,"la1":30.2991,"la2":30.254,"lo1":-89.0895,"lo2":-89.0444,"dy":0.0017,"dx":0.0017,"nx":28,"ny":28,"refTime":"2024-08-22T21:00:00:Z","depth":0,"parameterNumber":3,"parameterNumberName":"V-component_of_WINDS"},"data":[0,0,0,0,0,0,0,0,0,0,0,0,0,0,0,0,0,0,0,0,0,0,0,0,0,0,0,0,0,0,0,0,0,0,0,0,0,0,0,0,0,0,0,0,0,0,0,0,0,0,0,0,0,0,0,0,0,0,3.5284,3.5284,0,3.5352,3.5353,3.5353,3.542,3.5421,3.5422,3.5423,3.5488,3.5489,3.549,0,0,0,0,0,0,0,0,0,0,0,0,0,3.5208,3.5209,3.5284,3.5284,3.5285,3.5352,3.5353,3.5354,3.542,3.5421,3.5422,3.5423,3.5488,3.5489,3.549,0,0,0,0,0,0,0,0,0,0,0,0,0,3.5255,3.5209,3.5283,3.5327,3.5331,3.5352,3.5353,3.5354,3.542,3.5421,3.5422,3.5424,3.5487,3.5489,3.549,3.5472,0,0,3.5494,3.5495,0,0,0,0,0,0,0,0,3.5252,3.5257,3.5319,3.5324,3.5329,3.5379,3.535,3.5393,3.5419,3.5386,3.5423,3.5424,3.545,3.5455,3.5464,3.5475,3.5478,3.5494,3.5495,3.5496,3.5496,0,0,0,0,0,0,0,3.5249,3.5255,3.531,3.532,3.5326,3.5342,3.535,3.5359,3.541,3.5389,3.5394,3.5401,3.5453,3.5463,3.5466,3.5479,3.5494,3.5495,3.5496,3.5497,3.5479,3.5478,0,0,0,0,0,0,3.5239,3.5252,3.5308,3.5313,3.5293,3.5342,3.5351,3.5361,3.541,3.5419,3.54,3.5404,3.546,3.5465,3.5469,3.5452,3.5496,3.5497,3.5498,3.548,3.5479,3.5477,0,0,0,0,0,0,3.5238,3.5244,3.5306,3.5284,3.5293,3.5342,3.5353,3.5362,3.5372,3.5418,3.5427,3.5401,3.5461,3.5467,3.5471,3.5455,3.5497,3.5499,3.5482,3.548,3.5478,3.5416,0,0,0,0,0,0,3.5235,3.5243,3.5237,3.5283,3.5294,3.5307,3.5352,3.5362,3.5375,3.5381,3.5422,3.543,3.5463,3.5469,3.5473,3.5458,3.55,3.5484,3.5481,3.5479,3.542,3.5413,3.5406,0,0,0,0,0,3.5232,3.5215,3.5236,3.5243,3.5287,3.5306,3.5312,3.5352,3.5373,3.5367,3.5398,3.5428,3.5457,3.5469,3.5474,3.5459,3.5485,3.5482,3.5479,3.5423,3.5414,3.5406,0,0,0,0,0,0,3.5164,3.5222,3.5246,3.5244,3.527,3.5317,3.5311,3.5341,3.536,3.5364,3.5412,3.542,3.5419,3.544,3.5452,3.5444,3.5475,3.5473,3.5431,3.5423,3.5416,3.541,3.5501,0,0,0,0,0,3.5149,3.516,3.521,3.5203,3.5216,3.5261,3.5271,3.53,3.5328,3.5338,3.5369,3.5394,3.5409,3.5417,3.5433,3.5424,3.5434,3.5416,3.5409,3.5403,3.54,3.5398,3.5391,3.5468,3.5468,3.5468,0,0,3.5117,3.515,3.5154,3.5191,3.5214,3.5224,3.527,3.5278,3.5286,3.5339,3.5346,3.5369,3.54,3.5398,3.5398,3.5415,3.5382,3.54,3.5395,3.5395,3.5394,3.5387,3.538,3.5466,3.5466,3.5467,0,0,3.5064,3.5091,3.5089,3.5112,3.5149,3.5179,3.5179,3.5223,3.5241,3.5249,3.5289,3.5299,3.5323,3.5344,3.5358,3.5316,3.5345,3.532,3.5283,3.528,3.5274,3.5269,3.5254,3.5248,3.5317,3.5317,3.5317,0,3.502,3.5038,3.5084,3.509,3.5105,3.5157,3.5155,3.5175,3.5213,3.5222,3.524,3.5273,3.5298,3.5302,3.5292,3.5301,3.5302,3.5314,3.5271,3.5266,3.5262,3.5248,3.5243,3.5314,3.5314,3.5314,3.5315,0,3.4982,3.4994,3.4988,3.5026,3.504,3.5042,3.5088,3.5097,3.5125,3.5153,3.5161,3.5193,3.5217,3.522,3.5246,3.5228,3.5237,3.5263,3.5294,3.5251,3.5239,3.5234,3.5309,3.531,3.5311,3.5312,0,0,3.4885,3.4951,3.4948,3.4967,3.5012,3.5021,3.5026,3.5052,3.5058,3.5084,3.5088,3.5109,3.5134,3.5149,3.5179,3.5177,3.5142,3.5203,3.5204,3.519,3.5124,3.5103,3.5097,3.5162,3.5162,3.5161,3.5121,0,3.484,3.4853,3.4895,3.4895,3.4907,3.4957,3.4962,3.4989,3.5017,3.503,3.506,3.5074,3.5105,3.5115,3.5115,3.5146,3.5129,3.515,3.5166,3.5166,3.5156,3.509,3.5069,3.5029,3.5116,3.5116,3.5115,0,3.4788,3.4813,3.4814,3.4861,3.4867,3.487,3.4898,3.491,3.4943,3.4963,3.4982,3.5016,3.5023,3.5053,3.5064,3.5077,3.5087,3.5103,3.5102,3.5104,3.5137,3.509,3.5018,3.5011,3.5108,3.5109,3.5109,0,3.4718,3.4751,3.4757,3.4771,3.4825,3.4826,3.4848,3.4883,3.4896,3.492,3.4929,3.4952,3.4965,3.4982,3.5021,3.504,3.5027,3.5061,3.5043,3.5042,3.5037,3.5037,3.4965,3.5045,3.5045,3.5045,3.5045,0,3.4662,3.4661,3.4726,3.4729,3.473,3.4779,3.4777,3.4804,3.4835,3.4843,3.4888,3.4895,3.4948,3.496,3.4991,3.4995,3.5001,3.5017,3.5025,3.5012,3.501,3.5018,3.5022,3.5043,3.5044,3.5044,3.5044,0,3.4582,3.4626,3.4636,3.4687,3.47,3.4698,3.4742,3.4747,3.4778,3.4789,3.4794,3.4842,3.486,3.4902,3.493,3.4951,3.4947,3.4962,3.4936,3.4941,3.4921,3.4923,3.4851,3.4844,3.4929,3.4928,3.4927,0,3.4543,3.4544,3.4597,3.4607,3.4628,3.4643,3.4658,3.4707,3.4719,3.4758,3.4758,3.478,3.48,3.4826,3.4863,3.4885,3.4901,3.4874,3.4904,3.4892,3.49,3.4899,3.4899,3.4867,3.4866,3.4865,3.4864,0,3.447,3.4492,3.4512,3.454,3.4557,3.458,3.4607,3.4612,3.4667,3.4679,3.4699,3.4715,3.4745,3.4766,3.4794,3.4816,3.4849,3.4855,3.4852,3.4839,3.4824,3.4831,3.4918,3.4856,3.4857,3.4857,3.4858,3.4858,3.4409,3.4413,3.4451,3.4472,3.4498,3.4521,3.4529,3.4563,3.4581,3.461,3.4638,3.4655,3.4689,3.4731,3.4751,3.4764,3.4781,3.4776,3.4775,3.4773,3.4768,3.4823,3.477,3.477,3.477,3.477,3.4771,0,3.4338,3.4366,3.4385,3.4421,3.4438,3.447,3.4501,3.4512,3.4528,3.4557,3.4577,3.46,3.4622,3.4661,3.4686,3.4689,3.4705,3.4694,3.4693,3.4698,3.4752,3.4752,3.4681,3.4681,3.4681,3.4681,3.4681,3.4681,3.4303,3.4311,3.4338,3.4359,3.4387,3.4405,3.4421,3.4443,3.4467,3.4492,3.451,3.4537,3.4571,3.4598,3.4619,3.463,3.4637,3.4621,3.4636,3.4686,3.4694,3.4702,3.4702,3.4622,3.4622,3.4582,3.4581,3.4581]}]]